Weather in Pestravka

Russia / Samara Oblast     52°24′13″N   49°57′43″E
temp.,
°C
wind,
m/s
gust,
m/s
humid.,
%
clouds,
%
prec.,
mm/h
press.,
hPa
HPBL,
m
25 february, thu
thu2501:00−27nnw34927 0.0 103638
04:00−28nw339445 0.0 103629
07:00−28wnw119353 0.0 103619
10:00−23ssw238975 0.0 1035108
13:00−20s5790100 0.0 1033257
16:00−18s6992100 0.0 1030394
19:00−17s71296100 0.8 1027493
22:00−15s71395100 1.9 1025605
26 february, fri
fri2601:00−13s81394100 1.3 1021637
04:00−12s71294100 2.1 1019562
07:00−12s61094100 0.5 1017429
10:00−11s61094100 0.8 1017393
13:00−8s5894100 0.3 1015406
16:00−7s6995100 0.5 1014361
19:00−6s61095100 0.6 1012326
22:00−4s71196100 2.0 1008279
27 february, sat
sat2701:00+1ssw814100100 2.9 1003405
04:00+2wsw715100100 6.9 1001454
07:00+1w5139196 0.0 1000500
10:00+1wsw7139798 0.1 1001547
13:00+1wsw6129695 0.0 1001539
16:00+1wsw6119695 0.1 1001580
19:000wsw61195100 0.1 1000572
22:00−1wsw61196100 0.1 1000416
28 february, sun
sun2801:00−1wsw61197100 0.4 999486
04:00−2wsw51197100 0.8 1000387
07:00−9nnw61093100 0.4 1002296
10:00−12nnw61092100 0.7 1004388
13:00−12nw61091100 0.0 1007477
16:00−12nw51090100 0.1 1009531
19:00−15nnw5119290 0.0 1011290
22:00−17nnw499461 0.0 1014193
1 march, mon
mon101:00−18nw479729 0.0 1015132
04:00−19nw479743 0.0 1017134
07:00−19nw489767 0.0 1018170
10:00−17nnw579573 0.0 1020256
13:00−15nnw469393 0.0 1021327
16:00−15nw579396 0.0 1022335
19:00−18nw489570 0.0 1023156
22:00−20nnw339635 0.0 102440